Time,TemperatureF,DewpointF,PressureIn,WindDirection,WindDirectionDegrees,WindSpeedMPH,WindSpeedGustMPH,Humidity,HourlyPrecipIn,Conditions,Clouds,dailyrainin,SoftwareType,DateUTC
2013-01-15 00:28:00,34.3,31.9,30.40,WNW,296,1.0,1.0,91,0.00,,,0.00,Wunderground v.1.15,2013-01-15 08:28:00,
2013-01-15 00:58:00,32.9,31.1,30.40,NW,309,2.0,4.0,93,0.00,,,0.00,Wunderground v.1.15,2013-01-15 08:58:00,
2013-01-15 01:28:00,33.4,31.9,30.40,NW,309,4.0,5.0,94,0.00,,,0.00,Wunderground v.1.15,2013-01-15 09:28:00,
2013-01-15 01:58:00,32.7,31.4,30.42,WNW,290,3.0,3.0,95,0.00,,,0.00,Wunderground v.1.15,2013-01-15 09:58:00,
2013-01-15 02:28:00,32.6,31.1,30.42,WNW,290,0.0,0.0,94,0.00,,,0.00,Wunderground v.1.15,2013-01-15 10:28:00,
2013-01-15 02:59:00,32.2,30.7,30.43,WNW,290,0.0,1.0,94,0.00,,,0.00,Wunderground v.1.15,2013-01-15 10:59:00,
2013-01-15 03:28:00,32.0,31.0,30.42,WNW,290,1.0,2.0,96,0.00,,,0.00,Wunderground v.1.15,2013-01-15 11:28:00,
2013-01-15 03:58:00,31.3,30.3,30.43,WNW,300,3.0,3.0,96,0.00,,,0.00,Wunderground v.1.15,2013-01-15 11:58:00,
2013-01-15 04:29:00,31.2,29.9,30.43,WNW,292,0.0,0.0,95,0.00,,,0.00,Wunderground v.1.15,2013-01-15 12:29:00,
2013-01-15 04:58:00,31.1,29.6,30.42,WNW,292,3.0,4.0,94,0.00,,,0.00,Wunderground v.1.15,2013-01-15 12:58:00,
2013-01-15 05:29:00,30.7,29.2,30.42,WNW,297,2.0,2.0,94,0.00,,,0.00,Wunderground v.1.15,2013-01-15 13:29:00,
2013-01-15 05:58:00,30.4,29.1,30.43,WNW,303,3.0,3.0,95,0.00,,,0.00,Wunderground v.1.15,2013-01-15 13:58:00,
2013-01-15 06:28:00,30.0,29.0,30.44,WNW,302,0.0,0.0,96,0.00,,,0.00,Wunderground v.1.15,2013-01-15 14:28:00,
2013-01-15 06:58:00,30.3,28.5,30.45,WNW,302,0.0,0.0,93,0.00,,,0.00,Wunderground v.1.15,2013-01-15 14:58:00,
2013-01-15 07:28:00,30.9,29.1,30.46,WNW,302,0.0,2.0,93,0.00,,,0.00,Wunderground v.1.15,2013-01-15 15:28:00,
2013-01-15 07:59:00,30.2,28.9,30.47,NW,304,3.0,4.0,95,0.00,,,0.00,Wunderground v.1.15,2013-01-15 15:59:00,
2013-01-15 08:28:00,31.6,30.3,30.48,NW,317,1.0,1.0,95,0.00,,,0.00,Wunderground v.1.15,2013-01-15 16:28:00,
2013-01-15 08:58:00,33.6,32.3,30.48,NW,317,0.0,0.0,95,0.00,,,0.00,Wunderground v.1.15,2013-01-15 16:58:00,
2013-01-15 09:28:00,36.6,32.5,30.49,NW,317,0.0,0.0,85,0.00,,,0.00,Wunderground v.1.15,2013-01-15 17:28:00,
2013-01-15 09:58:00,38.0,32.4,30.49,SE,130,0.0,1.0,80,0.00,,,0.00,Wunderground v.1.15,2013-01-15 17:58:00,
2013-01-15 10:28:00,40.5,32.2,30.49,ESE,121,2.0,2.0,72,0.00,,,0.00,Wunderground v.1.15,2013-01-15 18:28:00,
2013-01-15 10:58:00,42.4,28.2,30.48,ESE,108,5.0,5.0,57,0.00,,,0.00,Wunderground v.1.15,2013-01-15 18:58:00,
2013-01-15 11:28:00,43.5,29.3,30.47,SSW,196,5.0,5.0,57,0.00,,,0.00,Wunderground v.1.15,2013-01-15 19:28:00,
2013-01-15 11:58:00,44.5,28.4,30.45,South,178,4.0,4.0,53,0.00,,,0.00,Wunderground v.1.15,2013-01-15 19:58:00,
2013-01-15 12:28:00,44.9,28.3,30.45,ESE,118,3.0,5.0,52,0.00,,,0.00,Wunderground v.1.15,2013-01-15 20:28:00,
2013-01-15 12:58:00,45.3,27.7,30.44,SE,135,4.0,4.0,50,0.00,,,0.00,Wunderground v.1.15,2013-01-15 20:58:00,
2013-01-15 13:28:00,45.4,29.3,30.43,SE,138,4.0,6.0,53,0.00,,,0.00,Wunderground v.1.15,2013-01-15 21:28:00,
2013-01-15 13:58:00,46.0,29.3,30.43,SSE,149,3.0,5.0,52,0.00,,,0.00,Wunderground v.1.15,2013-01-15 21:58:00,
2013-01-15 14:28:00,46.3,29.6,30.43,SE,134,5.0,5.0,52,0.00,,,0.00,Wunderground v.1.15,2013-01-15 22:28:00,
2013-01-15 14:58:00,46.9,30.2,30.42,ESE,121,3.0,5.0,52,0.00,,,0.00,Wunderground v.1.15,2013-01-15 22:58:00,
2013-01-15 15:28:00,47.1,30.4,30.43,South,187,2.0,2.0,52,0.00,,,0.00,Wunderground v.1.15,2013-01-15 23:28:00,
2013-01-15 15:58:00,46.5,30.7,30.43,South,186,2.0,2.0,54,0.00,,,0.00,Wunderground v.1.15,2013-01-15 23:58:00,
2013-01-15 16:58:00,43.7,31.1,30.43,South,176,0.0,0.0,61,0.00,,,0.00,Wunderground v.1.15,2013-01-16 00:58:00,
2013-01-15 17:28:00,41.9,31.0,30.43,South,176,0.0,0.0,65,0.00,,,0.00,Wunderground v.1.15,2013-01-16 01:28:00,
2013-01-15 17:58:00,39.5,30.5,30.43,South,176,0.0,0.0,70,0.00,,,0.00,Wunderground v.1.15,2013-01-16 01:58:00,
2013-01-15 18:28:00,37.4,30.5,30.43,WNW,296,4.0,5.0,76,0.00,,,0.00,Wunderground v.1.15,2013-01-16 02:28:00,
2013-01-15 18:58:00,35.4,30.5,30.43,WNW,295,4.0,4.0,82,0.00,,,0.00,Wunderground v.1.15,2013-01-16 02:58:00,
2013-01-15 19:28:00,34.8,30.2,30.43,NW,304,4.0,4.0,83,0.00,,,0.00,Wunderground v.1.15,2013-01-16 03:28:00,
2013-01-15 19:58:00,34.3,29.7,30.43,NW,304,5.0,6.0,83,0.00,,,0.00,Wunderground v.1.15,2013-01-16 03:58:00,
2013-01-15 20:28:00,33.5,29.8,30.42,NW,317,5.0,5.0,86,0.00,,,0.00,Wunderground v.1.15,2013-01-16 04:28:00,
2013-01-15 20:58:00,33.5,29.5,30.42,NNW,334,5.0,5.0,85,0.00,,,0.00,Wunderground v.1.15,2013-01-16 04:58:00,
2013-01-15 21:28:00,33.1,29.1,30.42,NW,306,4.0,4.0,85,0.00,,,0.00,Wunderground v.1.15,2013-01-16 05:28:00,
2013-01-15 21:58:00,32.7,29.0,30.42,WNW,300,5.0,5.0,86,0.00,,,0.00,Wunderground v.1.15,2013-01-16 05:58:00,
2013-01-15 22:28:00,32.5,28.5,30.43,WNW,283,4.0,5.0,85,0.00,,,0.00,Wunderground v.1.15,2013-01-16 06:28:00,
2013-01-15 22:58:00,32.3,28.3,30.43,NW,311,5.0,5.0,85,0.00,,,0.00,Wunderground v.1.15,2013-01-16 06:58:00,
2013-01-15 23:28:00,32.0,28.6,30.43,NW,308,6.0,6.0,87,0.00,,,0.00,Wunderground v.1.15,2013-01-16 07:28:00,
2013-01-15 23:58:00,32.1,28.4,30.43,NW,313,5.0,5.0,86,0.00,,,0.00,Wunderground v.1.15,2013-01-16 07:58:00,